STARLINK-5367, 55501

Orbit data source: Space-Track

STARLINK-5367, 55501 is a payload satellite owned by SpaceX/Seattle (US) in LEO that was launched on Thu, 02 Feb 2023 UTC via an FALCON 9 launch vehicle from the Air Force Eastern Test Range (AFETR). Payload-class satellites include a variety of spacecraft equipped with specific instruments for various scientific and technological missions. These include communications satellites like Starlink; space stations such as the ISS; scientific satellites like the Hubble; Earth observation satellites from companies like Planet Labs, Umbra, and HawkEye 360; GPS; miniature CubeSats for education and research; and military/defense satellites.

Loading next visibility...
Identifier
55501, 2023-015BE
Orbit
LEO
Country
Flag of USUS
Related business
Manufacturer
SpaceX/Seattle
Mission
Operational Commercial Communications
Bus & Motor
STARLINK, Unknown motor
Mass
305 kg wet, ~290 kg dry
Launch date (UTC)
2023-02-02 (3 years ago)
Launch vehicle
FALCON 9
Launch site
Air Force Eastern Test Range (AFETR)
Object type
Payload
Rocket body
Debris
Shape & HBR
Box + 1 Pan, 10.1 m
Radar Cross Section
13.562 m², Large (>1 m²)

Expand to show TLE details & history
Last TLE update: 13 hours ago

TLE from 13 hours ago
0 STARLINK-5367
1 55501U 23015BE  25288.59497470  .00001246  00000-0  10733-3 0  9997
2 55501  43.0005  46.8813 0001431 275.5847  84.4832 15.02532589148784
Epoch: 2025-10-15T14:16Z
TLE epoch observation values (Epoch: 2025-10-15T14:16:45.814Z)
Latitude
-0.00001°
Longitude
168.3236°
Altitude
558.773 km
Speed
7.584 km/s
True Right ascension
03h 07m 31s
True Declination
0° 00' 00"
Sunlit
Object was in full shadow at epoch
Visualization orbit readout
Latitude
Unknown
Longitude
Unknown
Altitude
Unknown
Speed
Unknown
Apparent Right ascension
Unknown
Apparent Declination
Unknown
Sunlit
N/A
Visualization observer readout
Local Sidereal Time
22:01:41
Azimuth
Unknown
Elevation
Unknown
Doppler factor
Unknown
Orbital elements
Apogee altitude
562.007 km
Perigee altitude
560.021 km
Semi-major axis
6,939.151 km
Eccentricity
0.00014
Inclination
43.0005°
RAAN
46.8813°
Arg. of periapsis
275.5847°
True anomaly
84.49952°
Mean anomaly
84.4832°
Eccentric anomaly
84.49136°
Mean motion
3.75477 °/min
Orbital period
95.88 mins
BSTAR
0.00010733
Loading maneuver chart data...
Computing Atmospheric mass density...
Loading historical data...
Loading historical data...
Loading historical data...
Loading historical data...
Loading historical data...
Loading historical data...
Loading historical data...

Documentation

Showing up to 5 results
|